[[{"header":{"parameterUnit":"m.s-1","parameterCategory":1,"la1":30.2991,"la2":30.254,"lo1":-89.0895,"lo2":-89.0444,"dy":0.0017,"dx":0.0017,"nx":28,"ny":28,"refTime":"2024-07-11T09:00:00:Z","depth":0,"parameterNumber":2,"parameterNumberName":"U-component_of_WINDS"},"data":[0,0,0,0,0,0,0,0,0,0,0,0,0,0,0,0,0,0,0,0,0,0,0,0,0,0,0,0,0,0,0,0,0,0,0,0,0,0,0,0,0,0,0,0,0,0,0,0,0,0,0,0,0,0,0,0,0,0,3.0532,3.0532,0,3.0609,3.061,3.0611,3.0576,3.0574,3.0572,3.057,3.065,3.0654,3.0658,0,0,0,0,0,0,0,0,0,0,0,0,0,3.0351,3.0355,3.0531,3.0532,3.0533,3.0609,3.061,3.0611,3.0576,3.0574,3.0572,3.0569,3.0649,3.0654,3.0658,0,0,0,0,0,0,0,0,0,0,0,0,0,3.0429,3.0356,3.0531,3.0525,3.0525,3.0609,3.061,3.0612,3.0577,3.0574,3.0571,3.0568,3.0647,3.0653,3.0659,3.0754,0,0,3.0677,3.068,0,0,0,0,0,0,0,0,3.0425,3.0436,3.0525,3.0526,3.0526,3.058,3.0576,3.0659,3.0577,3.0557,3.057,3.0567,3.0629,3.0636,3.0657,3.0757,3.0761,3.0678,3.0681,3.0684,3.0685,0,0,0,0,0,0,0,3.042,3.0433,3.0562,3.0526,3.0527,3.0518,3.0526,3.0592,3.0609,3.0559,3.0556,3.0566,3.0629,3.0652,3.0659,3.0762,3.0677,3.0683,3.0686,3.0689,3.0941,3.0944,0,0,0,0,0,0,3.0414,3.0428,3.056,3.0565,3.0467,3.0524,3.0532,3.0566,3.0608,3.0611,3.0568,3.0564,3.0643,3.0652,3.0662,3.0773,3.0684,3.0689,3.0693,3.0938,3.0942,3.0945,0,0,0,0,0,0,3.0411,3.0427,3.0557,3.0496,3.0512,3.053,3.0567,3.0569,3.0591,3.0615,3.0618,3.0589,3.0641,3.0653,3.073,3.0775,3.0692,3.0697,3.0934,3.0939,3.0943,3.0998,0,0,0,0,0,0,3.0406,3.0425,3.0462,3.0497,3.0515,3.0624,3.057,3.0572,3.0602,3.0597,3.0635,3.0638,3.064,3.0722,3.0736,3.0782,3.0702,3.093,3.0936,3.0942,3.0992,3.1004,3.1014,0,0,0,0,0,3.0399,3.0475,3.0464,3.048,3.0561,3.0627,3.0637,3.0637,3.0606,3.0642,3.0657,3.0637,3.0769,3.073,3.0746,3.0794,3.0927,3.0934,3.0941,3.0987,3.1001,3.1013,0,0,0,0,0,0,3.0445,3.0479,3.0468,3.0556,3.0589,3.0621,3.0667,3.0653,3.0696,3.0689,3.0688,3.0697,3.0776,3.0793,3.0749,3.0887,3.0843,3.0854,3.0872,3.0886,3.0897,3.089,3.0707,0,0,0,0,0,3.0465,3.0516,3.0543,3.0619,3.0636,3.0649,3.0678,3.0675,3.0708,3.0722,3.0743,3.0776,3.0825,3.0857,3.0903,3.0995,3.1001,3.1036,3.1047,3.1056,3.1064,3.1112,3.1126,3.0968,3.0968,3.0968,0,0,3.0507,3.0533,3.0565,3.0629,3.0654,3.0706,3.0661,3.0718,3.0756,3.0731,3.0804,3.0821,3.0858,3.0942,3.098,3.0959,3.111,3.1065,3.1072,3.1075,3.112,3.1135,3.1149,3.0973,3.0972,3.0971,0,0,3.0611,3.0636,3.07,3.0726,3.0764,3.0772,3.0788,3.0822,3.0831,3.0905,3.0886,3.0932,3.1016,3.1042,3.1067,3.1179,3.1162,3.1195,3.1251,3.1297,3.1309,3.132,3.1358,3.1372,3.1204,3.1204,3.1204,0,3.0658,3.0736,3.0735,3.0794,3.0821,3.0801,3.0865,3.0891,3.0942,3.0961,3.0937,3.1041,3.1065,3.1153,3.1181,3.1202,3.1219,3.1189,3.1308,3.1319,3.1329,3.1365,3.1379,3.1207,3.1207,3.1206,3.1206,0,3.0791,3.0846,3.0893,3.0942,3.0976,3.1037,3.1045,3.1079,3.1074,3.1084,3.1158,3.1186,3.1236,3.1258,3.1253,3.1345,3.1331,3.1308,3.1263,3.1348,3.1381,3.1395,3.1212,3.1211,3.121,3.1209,0,0,3.0924,3.0972,3.0989,3.101,3.105,3.1092,3.1152,3.1201,3.1229,3.1265,3.1314,3.1386,3.1364,3.1392,3.139,3.1431,3.1515,3.1402,3.1403,3.142,3.1615,3.163,3.1647,3.1505,3.1507,3.151,3.1611,0,3.1028,3.1133,3.1133,3.1229,3.1278,3.1259,3.1311,3.1341,3.1352,3.1395,3.1407,3.1457,3.1426,3.1442,3.1482,3.1496,3.1554,3.1489,3.1549,3.1551,3.1537,3.1664,3.1681,3.1776,3.1625,3.1627,3.1629,0,3.1163,3.1202,3.1303,3.1334,3.1355,3.1402,3.1445,3.1487,3.152,3.1525,3.1556,3.1548,3.1608,3.1563,3.1645,3.1601,3.1626,3.1637,3.164,3.1644,3.1593,3.1669,3.1806,3.1819,3.165,3.1648,3.1646,0,3.1246,3.1325,3.1394,3.1414,3.1453,3.1485,3.1503,3.1534,3.1562,3.1601,3.1619,3.1665,3.1689,3.1724,3.1728,3.1696,3.181,3.1766,3.1814,3.1814,3.1837,3.1835,3.1978,3.1858,3.1857,3.1857,3.1857,0,3.1361,3.1422,3.1432,3.1475,3.1542,3.1543,3.161,3.1625,3.1652,3.1697,3.1684,3.1726,3.173,3.1773,3.1777,3.1843,3.1855,3.186,3.1859,3.1859,3.1858,3.1873,3.1866,3.1861,3.186,3.1859,3.1859,0,3.1464,3.1474,3.1547,3.1578,3.1587,3.1636,3.1662,3.1702,3.1712,3.1768,3.1782,3.1797,3.1847,3.1855,3.1914,3.1917,3.1994,3.1989,3.1983,3.1981,3.2028,3.2022,3.2183,3.2203,3.2072,3.2074,3.2075,0,3.1535,3.1582,3.1617,3.1646,3.1665,3.1712,3.174,3.1743,3.1773,3.1814,3.1849,3.1898,3.1936,3.2017,3.2033,3.2078,3.2071,3.2125,3.2078,3.2076,3.2069,3.2065,3.2068,3.2133,3.2134,3.2135,3.2136,0,3.1659,3.1661,3.1703,3.1746,3.1781,3.1816,3.1848,3.1872,3.1879,3.1914,3.1964,3.1994,3.2054,3.2101,3.2146,3.2164,3.2151,3.2151,3.2164,3.2163,3.2156,3.2158,3.2004,3.2147,3.2146,3.2145,3.2145,3.2144,3.1746,3.1786,3.1816,3.1863,3.1888,3.1918,3.1957,3.1971,3.2013,3.2061,3.2061,3.2115,3.2146,3.2204,3.2225,3.2267,3.225,3.227,3.2274,3.2278,3.2281,3.2152,3.2276,3.2276,3.2275,3.2275,3.2275,0,3.1867,3.1886,3.1929,3.1974,3.201,3.1996,3.2031,3.2062,3.211,3.214,3.2178,3.2235,3.2281,3.2301,3.2346,3.2376,3.2371,3.2388,3.2384,3.2388,3.2296,3.2278,3.2391,3.2391,3.2391,3.239,3.239,3.239,3.1934,3.1999,3.2005,3.2082,3.21,3.2153,3.2174,3.2201,3.2225,3.2289,3.2327,3.234,3.2365,3.2412,3.2453,3.2457,3.2473,3.2492,3.2493,3.2406,3.2395,3.2383,3.2367,3.2496,3.2496,3.2582,3.2582,3.2583]},{"header":{"parameterUnit":"m.s-1","parameterCategory":1,"la1":30.2991,"la2":30.254,"lo1":-89.0895,"lo2":-89.0444,"dy":0.0017,"dx":0.0017,"nx":28,"ny":28,"refTime":"2024-07-11T09:00:00:Z","depth":0,"parameterNumber":3,"parameterNumberName":"V-component_of_WINDS"},"data":[0,0,0,0,0,0,0,0,0,0,0,0,0,0,0,0,0,0,0,0,0,0,0,0,0,0,0,0,0,0,0,0,0,0,0,0,0,0,0,0,0,0,0,0,0,0,0,0,0,0,0,0,0,0,0,0,0,0,2.8574,2.8575,0,2.8657,2.8657,2.8658,2.8653,2.8652,2.8651,2.8649,2.873,2.8733,2.8736,0,0,0,0,0,0,0,0,0,0,0,0,0,2.8407,2.841,2.8574,2.8575,2.8576,2.8656,2.8658,2.8659,2.8653,2.8652,2.865,2.8649,2.8729,2.8733,2.8736,0,0,0,0,0,0,0,0,0,0,0,0,0,2.8483,2.8411,2.8574,2.8583,2.8585,2.8656,2.8658,2.8659,2.8654,2.8652,2.865,2.8648,2.8727,2.8732,2.8737,2.8803,0,0,2.8752,2.8754,0,0,0,0,0,0,0,0,2.8479,2.8489,2.8581,2.8583,2.8585,2.8643,2.8628,2.8707,2.8654,2.8627,2.8649,2.8647,2.8702,2.8709,2.8728,2.8807,2.881,2.8752,2.8755,2.8757,2.8759,0,0,0,0,0,0,0,2.8473,2.8486,2.8606,2.8582,2.8584,2.8581,2.859,2.8643,2.8674,2.8629,2.8629,2.8639,2.8703,2.8723,2.873,2.8812,2.8752,2.8757,2.876,2.8762,2.8947,2.8949,0,0,0,0,0,0,2.8467,2.8481,2.8604,2.8609,2.8526,2.8586,2.8596,2.8626,2.8673,2.8679,2.8641,2.8639,2.8716,2.8724,2.8733,2.8812,2.8757,2.8762,2.8765,2.8945,2.8947,2.8949,0,0,0,0,0,0,2.8463,2.8478,2.86,2.8545,2.8561,2.8591,2.8624,2.8628,2.8649,2.8682,2.8687,2.8657,2.8715,2.8726,2.8786,2.8815,2.8764,2.8769,2.8943,2.8946,2.8948,2.8972,0,0,0,0,0,0,2.8458,2.8476,2.8503,2.8546,2.8564,2.8654,2.8626,2.8631,2.8658,2.8656,2.8698,2.8703,2.8714,2.8778,2.879,2.8821,2.8772,2.894,2.8944,2.8947,2.8969,2.8976,2.8981,0,0,0,0,0,2.8452,2.8506,2.8505,2.8519,2.8598,2.8655,2.8665,2.8678,2.8661,2.8687,2.8707,2.8702,2.881,2.8785,2.8798,2.883,2.8938,2.8943,2.8947,2.8966,2.8974,2.8981,0,0,0,0,0,0,2.8465,2.8512,2.8511,2.858,2.8614,2.8654,2.8688,2.8687,2.8725,2.8722,2.8735,2.8744,2.8804,2.8823,2.8794,2.8896,2.8871,2.8879,2.8881,2.8889,2.8895,2.8889,2.8777,0,0,0,0,0,2.8476,2.852,2.8558,2.8616,2.8633,2.8657,2.8683,2.869,2.8725,2.8739,2.8764,2.8797,2.8838,2.8865,2.8905,2.8972,2.898,2.9,2.9007,2.9012,2.9018,2.9053,2.9062,2.8964,2.8964,2.8964,0,0,2.8499,2.853,2.8557,2.8619,2.8646,2.869,2.8669,2.8717,2.8749,2.8746,2.8804,2.8823,2.886,2.8924,2.8953,2.8941,2.9046,2.9017,2.9021,2.9024,2.9058,2.9067,2.9076,2.8967,2.8967,2.8966,0,0,2.8562,2.8591,2.8642,2.8669,2.8711,2.8727,2.8739,2.8779,2.8792,2.8851,2.8849,2.8887,2.8958,2.8984,2.9007,2.908,2.9075,2.9092,2.9124,2.9159,2.9166,2.9173,2.9197,2.9206,2.9098,2.9098,2.9098,0,2.8585,2.8653,2.8667,2.8715,2.8742,2.8742,2.8792,2.8817,2.8869,2.8887,2.8874,2.8962,2.8988,2.9056,2.9074,2.9093,2.9105,2.9087,2.9164,2.9171,2.9178,2.9201,2.921,2.91,2.91,2.91,2.9099,0,2.8678,2.8724,2.876,2.8811,2.8842,2.889,2.891,2.8939,2.8944,2.896,2.9019,2.9049,2.9095,2.9112,2.9116,2.9181,2.9172,2.9162,2.9137,2.9189,2.9211,2.922,2.9102,2.9102,2.9101,2.9101,0,0,2.8752,2.881,2.8823,2.8845,2.8891,2.8926,2.8974,2.902,2.9043,2.9079,2.9118,2.9178,2.9168,2.9194,2.9201,2.9231,2.9285,2.9217,2.9218,2.9227,2.9356,2.9363,2.9373,2.9283,2.9284,2.9286,2.9352,0,2.8819,2.8905,2.8919,2.8994,2.9037,2.9037,2.9078,2.911,2.9126,2.9163,2.9181,2.9223,2.9208,2.9223,2.9253,2.9272,2.9311,2.9268,2.9317,2.9319,2.9307,2.9385,2.9392,2.9454,2.9361,2.9363,2.9364,0,2.8909,2.8948,2.9028,2.9066,2.9084,2.9122,2.9164,2.92,2.9234,2.9244,2.9273,2.9276,2.9324,2.9298,2.9363,2.9333,2.9354,2.9366,2.9369,2.9373,2.9344,2.939,2.9474,2.9482,2.9378,2.9377,2.9376,0,2.8953,2.9025,2.9082,2.9101,2.9148,2.9174,2.9195,2.9228,2.9254,2.929,2.9307,2.9348,2.937,2.9401,2.9414,2.9395,2.9477,2.9453,2.9485,2.9485,2.9502,2.95,2.9589,2.9518,2.9517,2.9517,2.9517,0,2.9026,2.9074,2.9102,2.9137,2.919,2.9205,2.9257,2.9276,2.9306,2.9343,2.9346,2.938,2.9396,2.9433,2.9444,2.9494,2.9505,2.9512,2.9514,2.9512,2.951,2.9525,2.952,2.952,2.9519,2.9519,2.9518,0,2.9084,2.9105,2.9166,2.9206,2.9217,2.9254,2.9287,2.932,2.9336,2.9383,2.9395,2.942,2.9463,2.948,2.9532,2.9539,2.9597,2.9596,2.9586,2.9586,2.9616,2.9613,2.9716,2.973,2.9651,2.9651,2.9652,0,2.9129,2.9166,2.921,2.9235,2.9257,2.9298,2.9325,2.9341,2.9368,2.941,2.9437,2.948,2.9515,2.9583,2.9605,2.9644,2.9644,2.9677,2.965,2.9645,2.9642,2.964,2.9642,2.9682,2.9683,2.9683,2.9684,0,2.9205,2.9214,2.9253,2.9296,2.9328,2.9362,2.9395,2.9415,2.9436,2.9466,2.951,2.9538,2.9591,2.9633,2.9674,2.9693,2.9691,2.9693,2.9702,2.9699,2.969,2.9694,2.9598,2.969,2.9689,2.9689,2.9689,2.9688,2.9257,2.929,2.9325,2.9368,2.9395,2.9426,2.9458,2.9479,2.9517,2.9562,2.9569,2.9616,2.9648,2.9702,2.9723,2.9759,2.975,2.9764,2.9767,2.977,2.9771,2.9686,2.9766,2.9766,2.9766,2.9766,2.9766,0,2.9332,2.9355,2.9395,2.9442,2.9475,2.9473,2.9509,2.9536,2.9578,2.9609,2.9644,2.9694,2.9735,2.976,2.98,2.9823,2.9824,2.9833,2.9831,2.9835,2.9778,2.9765,2.9832,2.9832,2.9832,2.9832,2.9832,2.9832,2.9376,2.943,2.9442,2.9509,2.9532,2.9579,2.9599,2.9627,2.9652,2.9708,2.9742,2.9759,2.9787,2.9829,2.9865,2.9871,2.9885,2.9896,2.9901,2.9846,2.9839,2.9833,2.9821,2.9899,2.9899,2.9955,2.9956,2.9956]}]]